• In Lithuania
  • List of Countries
  • For 7 days
  • Water Temperature
  • Satellite Maps
  • Weather Map
  • Weather Widgets
  • user-avatar
    Login

    Hourly Weather Korçe

    Today, 25 June, Monday

    Time Temperature Precipitation Wind Pressure Humidity
    00:00 +12°C° 0 mm 1 mps 666 mmHg 88%
    01:00 +12°C° 0 mm 1 mps 665 mmHg 90%
    02:00 +12°C° 0 mm 1 mps 665 mmHg 90%
    03:00 +10°C° 0 mm 2 mps 665 mmHg 90%
    04:00 +10°C° 0 mm 2 mps 665 mmHg 91%
    05:00 +12°C° 0 mm 2 mps 665 mmHg 87%
    06:00 +14°C° 0 mm 2 mps 666 mmHg 84%
    07:00 +15°C° 0 mm 2 mps 666 mmHg 80%
    08:00 +15°C° 0.7 mm 2 mps 666 mmHg 77%
    09:00 +16°C° 0.7 mm 2 mps 666 mmHg 75%
    10:00 +17°C° 0.7 mm 2 mps 667 mmHg 72%
    11:00 +16°C° 1.8 mm 2 mps 666 mmHg 76%
    12:00 +16°C° 1.8 mm 2 mps 666 mmHg 79%
    13:00 +15°C° 1.8 mm 2 mps 666 mmHg 82%
    14:00 +15°C° 1.4 mm 2 mps 666 mmHg 84%
    15:00 +15°C° 1.4 mm 2 mps 666 mmHg 85%
    16:00 +15°C° 1.4 mm 2 mps 666 mmHg 87%
    17:00 +14°C° 0.7 mm 2 mps 665 mmHg 88%
    18:00 +14°C° 0.7 mm 2 mps 665 mmHg 89%
    19:00 +13°C° 0.7 mm 2 mps 665 mmHg 90%
    20:00 +13°C° 0.9 mm 2 mps 665 mmHg 90%
    21:00 +13°C° 0.9 mm 2 mps 665 mmHg 91%
    22:00 +13°C° 0.9 mm 2 mps 665 mmHg 92%
    23:00 +12°C° 0.7 mm 2 mps 665 mmHg 92%

    Tomorrow, 26 June, Tuesday

    Time Temperature Precipitation Wind Pressure Humidity
    00:00 +12°C° 0.7 mm 2 mps 665 mmHg 92%
    01:00 +12°C° 0.7 mm 2 mps 664 mmHg 92%
    02:00 +12°C° 0.7 mm 2 mps 664 mmHg 92%
    03:00 +12°C° 0.7 mm 2 mps 664 mmHg 92%
    04:00 +10°C° 0.7 mm 2 mps 663 mmHg 92%
    05:00 +12°C° 0.7 mm 2 mps 663 mmHg 91%
    06:00 +12°C° 0.7 mm 2 mps 663 mmHg 89%
    07:00 +13°C° 0.7 mm 2 mps 663 mmHg 88%
    08:00 +14°C° 0.3 mm 2 mps 663 mmHg 84%
    09:00 +15°C° 0.3 mm 2 mps 664 mmHg 80%
    10:00 +15°C° 0.3 mm 2 mps 664 mmHg 76%
    11:00 +15°C° 1 mm 2 mps 663 mmHg 78%
    12:00 +15°C° 1 mm 2 mps 663 mmHg 80%
    13:00 +15°C° 1 mm 2 mps 663 mmHg 81%
    14:00 +15°C° 0.8 mm 2 mps 663 mmHg 82%
    15:00 +15°C° 0.8 mm 2 mps 663 mmHg 82%
    16:00 +15°C° 0.8 mm 2 mps 662 mmHg 82%
    17:00 +15°C° 1.3 mm 2 mps 662 mmHg 85%
    18:00 +14°C° 1.3 mm 2 mps 662 mmHg 87%
    19:00 +13°C° 1.3 mm 2 mps 662 mmHg 90%
    20:00 +13°C° 0.9 mm 2 mps 662 mmHg 90%
    21:00 +13°C° 0.9 mm 2 mps 662 mmHg 91%
    22:00 +13°C° 0.9 mm 2 mps 662 mmHg 91%
    23:00 +13°C° 0.6 mm 2 mps 662 mmHg 91%

    Day after tomorrow, 27 June, Wednesday

    Time Temperature Precipitation Wind Pressure Humidity
    00:00 +13°C° 0.6 mm 2 mps 661 mmHg 91%
    01:00 +13°C° 0.6 mm 2 mps 661 mmHg 91%
    02:00 +12°C° 0.2 mm 2 mps 661 mmHg 92%
    03:00 +12°C° 0.2 mm 2 mps 661 mmHg 92%
    04:00 +12°C° 0.2 mm 2 mps 661 mmHg 92%
    05:00 +13°C° 0 mm 2 mps 661 mmHg 89%
    06:00 +14°C° 0 mm 2 mps 661 mmHg 86%
    07:00 +14°C° 0 mm 2 mps 661 mmHg 83%
    08:00 +16°C° 0.3 mm 2 mps 662 mmHg 79%
    09:00 +17°C° 0.3 mm 2 mps 662 mmHg 75%
    10:00 +18°C° 0.3 mm 2 mps 662 mmHg 70%
    11:00 +18°C° 1 mm 2 mps 662 mmHg 71%
    12:00 +18°C° 1 mm 2 mps 662 mmHg 73%
    13:00 +17°C° 1 mm 2 mps 662 mmHg 74%
    14:00 +17°C° 1.1 mm 2 mps 661 mmHg 76%
    15:00 +17°C° 1.1 mm 2 mps 661 mmHg 77%
    16:00 +16°C° 1.1 mm 2 mps 661 mmHg 79%
    17:00 +16°C° 0.5 mm 2 mps 661 mmHg 81%
    18:00 +15°C° 0.5 mm 2 mps 661 mmHg 84%
    19:00 +14°C° 0.5 mm 2 mps 661 mmHg 86%
    20:00 +13°C° 0.1 mm 1 mps 661 mmHg 87%
    21:00 +13°C° 0.1 mm 1 mps 661 mmHg 88%
    22:00 +12°C° 0.1 mm 1 mps 661 mmHg 89%
    23:00 +11°C° 0 mm 1 mps 661 mmHg 89%

    28 June, Thursday

    Time Temperature Precipitation Wind Pressure Humidity
    00:00 +11°C° 0 mm 1 mps 661 mmHg 90%
    01:00 +11°C° 0 mm 1 mps 661 mmHg 90%
    02:00 +10°C° 0 mm 1 mps 661 mmHg 90%
    03:00 +10°C° 0 mm 1 mps 661 mmHg 90%
    04:00 +10°C° 0 mm 1 mps 660 mmHg 89%
    05:00 +11°C° 0 mm 1 mps 661 mmHg 85%
    06:00 +13°C° 0 mm 1 mps 662 mmHg 81%
    07:00 +15°C° 0 mm 1 mps 662 mmHg 77%
    08:00 +16°C° 0.3 mm 1 mps 662 mmHg 73%
    09:00 +17°C° 0.3 mm 2 mps 663 mmHg 69%
    10:00 +18°C° 0.3 mm 2 mps 663 mmHg 65%
    11:00 +18°C° 1.1 mm 3 mps 663 mmHg 65%
    12:00 +18°C° 1.1 mm 3 mps 663 mmHg 65%
    13:00 +18°C° 1.1 mm 3 mps 663 mmHg 65%
    14:00 +18°C° 0.7 mm 3 mps 663 mmHg 67%
    15:00 +17°C° 0.7 mm 3 mps 663 mmHg 69%
    16:00 +17°C° 0.7 mm 3 mps 664 mmHg 71%
    17:00 +16°C° 0.1 mm 3 mps 664 mmHg 75%
    18:00 +15°C° 0.1 mm 2 mps 664 mmHg 80%
    19:00 +14°C° 0.1 mm 2 mps 664 mmHg 84%
    20:00 +13°C° 0 mm 1 mps 664 mmHg 86%
    21:00 +12°C° 0 mm 1 mps 664 mmHg 89%
    22:00 +11°C° 0 mm 1 mps 664 mmHg 91%
    23:00 +11°C° 0 mm 1 mps 664 mmHg 91%

    29 June, Friday

    Time Temperature Precipitation Wind Pressure Humidity
    00:00 +11°C° 0 mm 1 mps 664 mmHg 92%
    01:00 +10°C° 0 mm 1 mps 664 mmHg 93%
    02:00 +10°C° 0 mm 1 mps 664 mmHg 93%
    03:00 +10°C° 0 mm 1 mps 664 mmHg 93%
    04:00 +9°C° 0 mm 2 mps 664 mmHg 93%
    05:00 +12°C° 0 mm 1 mps 664 mmHg 88%
    06:00 +14°C° 0 mm 1 mps 664 mmHg 82%
    07:00 +15°C° 0 mm 1 mps 665 mmHg 76%
    08:00 +17°C° 0 mm 2 mps 665 mmHg 69%
    09:00 +18°C° 0 mm 2 mps 666 mmHg 63%
    10:00 +20°C° 0 mm 3 mps 666 mmHg 56%
    11:00 +20°C° 0.1 mm 3 mps 666 mmHg 56%
    12:00 +21°C° 0.1 mm 3 mps 666 mmHg 57%
    13:00 +21°C° 0.1 mm 4 mps 666 mmHg 57%
    14:00 +21°C° 0.2 mm 3 mps 666 mmHg 60%
    15:00 +20°C° 0.2 mm 3 mps 666 mmHg 62%
    16:00 +20°C° 0.2 mm 3 mps 665 mmHg 64%
    17:00 +18°C° 0.1 mm 3 mps 665 mmHg 70%
    18:00 +17°C° 0.1 mm 2 mps 665 mmHg 76%
    19:00 +16°C° 0.1 mm 2 mps 665 mmHg 81%
    20:00 +15°C° 0 mm 1 mps 665 mmHg 83%
    21:00 +14°C° 0 mm 1 mps 665 mmHg 85%
    22:00 +13°C° 0 mm 1 mps 665 mmHg 87%
    23:00 +13°C° 0 mm 1 mps 664 mmHg 87%

    30 June, Saturday

    Time Temperature Precipitation Wind Pressure Humidity
    00:00 +12°C° 0 mm 1 mps 664 mmHg 87%
    01:00 +12°C° 0 mm 1 mps 664 mmHg 88%
    02:00 +12°C° 0 mm 1 mps 664 mmHg 87%
    03:00 +12°C° 0 mm 1 mps 664 mmHg 87%
    04:00 +11°C° 0 mm 1 mps 664 mmHg 87%
    05:00 +13°C° 0 mm 1 mps 664 mmHg 83%
    06:00 +15°C° 0 mm 1 mps 665 mmHg 78%
    07:00 +16°C° 0 mm 1 mps 665 mmHg 74%
    08:00 +18°C° 0 mm 2 mps 665 mmHg 69%
    09:00 +19°C° 0 mm 2 mps 666 mmHg 64%
    10:00 +20°C° 0 mm 2 mps 666 mmHg 59%
    11:00 +21°C° 0 mm 3 mps 666 mmHg 59%
    12:00 +21°C° 0 mm 3 mps 666 mmHg 59%
    13:00 +22°C° 0 mm 3 mps 666 mmHg 59%
    14:00 +21°C° 0 mm 3 mps 665 mmHg 61%
    15:00 +21°C° 0 mm 3 mps 665 mmHg 63%
    16:00 +21°C° 0 mm 3 mps 665 mmHg 65%
    17:00 +20°C° 0.1 mm 3 mps 665 mmHg 71%
    18:00 +18°C° 0.1 mm 2 mps 665 mmHg 78%
    19:00 +17°C° 0.1 mm 2 mps 665 mmHg 84%
    20:00 +16°C° 0 mm 2 mps 665 mmHg 86%
    21:00 +16°C° 0 mm 2 mps 665 mmHg 88%
    22:00 +15°C° 0 mm 1 mps 665 mmHg 90%
    23:00 +15°C° 0 mm 2 mps 665 mmHg 89%
    Show more